LEMUR-2-MERIMA (48929 NORAD) Tracking and Keplerian Element Data

This shows tracking and keplerian element data for the satellite.

Feedback or suggestion? Click here.




ElementValue
Catalog48929
NameLEMUR-2-MERIMA
Epoch Orbit1396
Epoch Day269.11043081
Epoch Year2021
RAAN36.6884
Inclination97.5183
Eccentricity0.0016196
Argument of Perigee294.5603
Mean Anonmoly65.394
Mean Motion15.13943195
Decay Rate4.017E-05
L11 48929U 21059BC 21269.11043081 .00004017 00000-0 22465-3 0 9991
L22 48929 97.5183 36.6884 0016196 294.5603 65.3940 15.13943195 13961

Live tracking and technical data element details for LEMUR-2-MERIMA (NORAD 48929). LEMUR-2-MERIMA can be tracked NOW for your location showing map with azimuth and elevation plus other details from your city location.

Track the satellite on the map from your city or location and see movement details for azimuth, elevation, latitude, longitude, range, height, and movement on the map or in text.







IsCatalogInMostPopularTable: catalog: 48929, numindb: 15
Update: records affected: 1



GetName: 48929 LEMUR-2-MERIMA

Hit Count: updated at: Sun, 26 Sep 2021 15:10:28 GMT